Location: Unspecified
(0.0000°N, 0.0000°E)
Time: 18:56:26
(UTC+00:00)

Vanguard 2 - Pass Details

Date: 16 April 2026
Orbit: 553 x 2895 km, 32.9° (Epoch: 17 May)

Event Time Altitude Azimuth Distance (km) Brightness Sun altitude
Rises 20:18:27 0° 293° (WNW) 4,616 12.5 -34.0°
Reaches altitude 10° 20:21:07 10° 289° (WNW) 3,904 11.9 -34.7°
Maximum altitude 20:31:58 60° 212° (SSW) 2,530 10.0 -37.3°
Enters shadow 20:36:17 47° 164° (SSE) 3,039 10.2 -38.4°
